Simultaneous Nadir Overpasses (SNOs) Predictions

Prediction of SNOs between GOES-17 and TERRA Satellite Orbit:

Table of predicted SNOs for the next 14.0 days since TLE Epoch: 4/6/2024
Index Date Time (GOES-17) GOES-17 Lat,Lon TERRA Lat,Lon Distance(km) Time Diff (sec)
1 04/07/2024 04:46:04 -0.00,-104.67 0.15,-104.07 69.06 80
2 04/07/2024 17:06:03 0.00,-104.67 0.90,-108.93 483.33 80
3 04/09/2024 16:48:58 0.01,-104.69 0.01,-104.81 13.33 80
4 04/11/2024 16:34:33 0.01,-104.71 -0.83,-100.68 456.87 80
5 04/12/2024 04:54:40 -0.01,-104.71 -0.20,-105.58 99.11 80
6 04/14/2024 04:34:55 -0.00,-104.72 0.71,-101.47 370.71 80
7 04/14/2024 16:54:54 -0.00,-104.72 0.36,-106.32 181.81 80
8 04/16/2024 16:40:28 -0.01,-104.74 -0.52,-102.20 288.54 80
9 04/17/2024 05:00:37 0.01,-104.75 -0.45,-107.10 267.13 80
10 04/19/2024 04:40:50 0.01,-104.77 0.38,-102.97 203.83 80
11 04/19/2024 17:00:50 -0.02,-104.77 0.62,-107.84 348.50 80
